Higginson, AR

8:02 PM CST on February 20, 2017 (GMT -0600)
Searcy Municipal

Weather History for KSRC - December, 2012

Change the Weather History Date:

Saturday, December 8, 2012

  Actual Average Record
Temperature  
Mean Temperature 60 °F -  
Max Temperature 64 °F 54 °F 73 °F (1952)
Min Temperature 57 °F 34 °F 15 °F (1950)
Degree Days  
Heating Degree Days 4    
Growing Degree Days 10 (Base 50)    
Moisture  
Dew Point 58 °F    
Average Humidity 88    
Maximum Humidity 100    
Minimum Humidity 75    
Precipitation  
Precipitation 0.00 in - - ()
Sea Level Pressure  
Sea Level Pressure 29.90 in    
Wind  
Wind Speed 2 mph (East)    
Max Wind Speed 9 mph    
Max Gust Speed -    
Visibility 7 miles    
Events Rain    
Averages and records for this station are not official NWS values.
T = Trace of Precipitation, MM = Missing Value Source: NWS Daily Summary

Daily Weather History Graph

Daily Weather History Graph

Search for Another Location

Airport or City:

Trip Planner

Search our weather history database for the weather conditions in past years. The results will help you decide how hot, cold, wet, or windy it might be!

Date:

Astronomy

Dec. 08, 2012 Rise Set
Actual Time 7:03 AM CST 4:54 PM CST
Civil Twilight 6:35 AM CST 5:22 PM CST
Nautical Twilight 6:03 AM CST 5:54 PM CST
Astronomical Twilight 5:32 AM CST 6:25 PM CST
Moon 1:38 AM CST (12/8) 1:16 PM CST (12/8)
Length of Visible Light 10h 47m
Length of Day
9h 51m
Waning Crescent, 28% of the Moon is Illuminated
Dec 8
Waning Crescent
Dec 13
New
Dec 19
First Quarter
Dec 28
Full
Jan 4
Last Quarter

Hourly Weather History & Observations

Time (CST) Temp. Dew Point Humidity Pressure Visibility Wind Dir Wind Speed Gust Speed Precip Events Conditions
12:56 AM 57.9 °F 55.9 °F 93% 29.89 in 7.0 mi Calm Calm - N/A   Mostly Cloudy
1:56 AM 59.0 °F 55.9 °F 90% 29.89 in 6.0 mi Calm Calm - 0.00 in   Overcast
2:56 AM 59.0 °F 55.9 °F 90% 29.89 in 7.0 mi Calm Calm - N/A   Overcast
3:56 AM 59.0 °F 55.9 °F 90% 29.89 in 6.0 mi Calm Calm - N/A   Overcast
4:56 AM 57.9 °F 56.8 °F 96% 29.89 in 6.0 mi Calm Calm - N/A   Overcast
5:56 AM 57.9 °F 56.8 °F 96% 29.91 in 5.0 mi Calm Calm - N/A   Overcast
6:32 AM 57.2 °F 57.2 °F 100% 29.90 in 5.0 mi Calm Calm - N/A   Mostly Cloudy
6:56 AM 57.9 °F 56.8 °F 96% 29.92 in 6.0 mi Calm Calm - N/A   Mostly Cloudy
7:05 AM 57.2 °F 57.2 °F 100% 29.91 in 5.0 mi Calm Calm - N/A   Mostly Cloudy
7:29 AM 57.2 °F 57.2 °F 100% 29.91 in 4.0 mi Calm Calm - N/A   Scattered Clouds
7:56 AM 57.9 °F 56.8 °F 96% 29.92 in 4.0 mi Calm Calm - N/A   Partly Cloudy
8:56 AM 59.9 °F 56.8 °F 90% 29.94 in 5.0 mi Calm Calm - N/A   Mostly Cloudy
9:56 AM 61.0 °F 56.8 °F 86% 29.95 in 6.0 mi Calm Calm - N/A   Overcast
10:29 AM 62.6 °F 57.2 °F 82% 29.93 in 7.0 mi NNE 4.6 mph - N/A   Mostly Cloudy
10:56 AM 63.9 °F 56.8 °F 78% 29.94 in 9.0 mi NNE 5.8 mph - N/A   Mostly Cloudy
11:05 AM 62.6 °F 57.2 °F 82% 29.93 in 10.0 mi NE 5.8 mph - N/A   Mostly Cloudy
11:56 AM 64.4 °F 57.2 °F 77% 29.91 in 10.0 mi East 6.9 mph - N/A   Mostly Cloudy
12:56 PM 63.0 °F 55.9 °F 78% 29.90 in 10.0 mi East 6.9 mph - N/A   Overcast
1:56 PM 63.9 °F 56.8 °F 78% 29.89 in 10.0 mi East 3.5 mph - N/A   Mostly Cloudy
2:30 PM 64.4 °F 57.2 °F 77% 29.88 in 10.0 mi ESE 3.5 mph - N/A   Overcast
2:56 PM 64.9 °F 56.8 °F 75% 29.88 in 10.0 mi East 3.5 mph - N/A   Partly Cloudy
3:15 PM 64.4 °F 57.2 °F 77% 29.88 in 10.0 mi Calm Calm - N/A   Mostly Cloudy
3:44 PM 64.4 °F 57.2 °F 77% 29.87 in 10.0 mi ESE 9.2 mph - N/A   Partly Cloudy
3:56 PM 63.9 °F 57.9 °F 81% 29.89 in 9.0 mi ESE 4.6 mph - N/A   Clear
4:56 PM 61.9 °F 57.9 °F 87% 29.89 in 7.0 mi East 3.5 mph - N/A   Mostly Cloudy
5:56 PM 61.9 °F 57.9 °F 87% 29.90 in 7.0 mi Calm Calm - N/A   Mostly Cloudy
6:56 PM 61.9 °F 57.9 °F 87% 29.91 in 8.0 mi East 4.6 mph - N/A   Overcast
7:45 PM 62.6 °F 57.2 °F 82% 29.90 in 8.0 mi Calm Calm - N/A   Overcast
8:56 PM 61.9 °F 59.9 °F 93% 29.90 in 6.0 mi ESE 3.5 mph - N/A   Overcast
9:16 PM 62.6 °F 60.8 °F 94% 29.89 in 5.0 mi SE 4.6 mph - N/A   Overcast
9:56 PM 61.9 °F 61.0 °F 97% 29.89 in 4.0 mi SE 5.8 mph - N/A   Overcast
10:56 PM 61.9 °F 61.9 °F 100% 29.89 in 3.0 mi South 5.8 mph - 0.00 in Rain Light Rain
11:56 PM 63.0 °F 63.0 °F 100% 29.87 in 4.0 mi South 8.1 mph - 0.00 in   Overcast